This demonstration page uses our WeatherBlox Daily Observations layout. Learn more.

Hourly Observations for September 10, 2019

Temp ( °F °C ) Dew Point ( °F °C ) Humidity (%) Winds ( mph kmh ) Pressure ( in mb ) Visibility ( mi km ) Precip ( " mm )
12:15 am 00:15 Clear 71 21.9 69 20.6 92 92 S 6 9 29.78 1009 10 16.0934 0 0
12:35 am 00:35 Clear 71 21.7 69 20.5 93 93 S 3 6 29.78 1009 10 16.0934 0 0
12:55 am 00:55 Clear 71 21.6 69 20.5 93 93 S 5 7 29.79 1009 10 16.0934 0 0
1:15 am 01:15 Clear 71 21.7 69 20.5 93 93 S 3 6 29.78 1009 10 16.0934 0 0
1:35 am 01:35 Clear 71 21.7 69 20.3 92 92 S 5 7 29.78 1009 10 16.0934 0 0
1:55 am 01:55 Clear 71 21.8 68 20.1 90 90 S 3 6 29.79 1009 10 16.0934 0 0
2:15 am 02:15 Clear 71 21.6 68 20 91 91 S 5 7 29.79 1009 10 16.0934 0 0
2:35 am 02:35 Clear 69 20.8 68 19.8 94 94 S 3 6 29.8 1009 10 16.0934 0 0
2:55 am 02:55 Clear 68 20.1 67 19.5 96 96 SSE 3 6 29.81 1009 10 16.0934 0 0
3:15 am 03:15 Clear 68 20.1 67 19.2 95 95 Calm 29.81 1009 10 16.0934 0 0
3:35 am 03:35 Clear 68 20 67 19.2 95 95 SSW 6 9 29.82 1010 10 16.0934 0 0
3:55 am 03:55 Clear 69 20.3 67 19.2 93 93 S 7 11 29.82 1010 10 16.0934 0 0
4:15 am 04:15 Clear 69 20.4 66 19 92 92 S 5 7 29.81 1010 10 16.0934 0 0
4:35 am 04:35 Clear 67 19.3 65 18.5 95 95 SSE 6 9 29.82 1010 10 16.0934 0 0
4:55 am 04:55 Clear 65 18.5 65 18.1 98 98 SSE 3 6 29.84 1010 10 16.0934 0 0
5:15 am 05:15 Clear 65 18.5 64 18 97 97 SSE 3 6 29.84 1010 10 16.0934 0 0
5:35 am 05:35 Clear 65 18.6 65 18.1 97 97 SSE 5 7 29.85 1011 10 16.0934 0 0
5:55 am 05:55 Clear 66 18.9 64 18 95 95 S 5 7 29.86 1011 10 16.0934 0 0
6:15 am 06:15 Clear 66 19 65 18.1 95 95 SSE 6 9 29.86 1011 10 16.0934 0 0
6:35 am 06:35 Clear 66 18.9 64 18 95 95 Calm 29.87 1011 10 16.0934 0 0
6:55 am 06:55 Clear 65 18.6 64 18 96 96 Calm 29.87 1011 10 16.0934 0 0
7:15 am 07:15 Sunny 65 18.5 64 17.9 96 96 Calm 29.88 1012 10 16.0934 0 0
7:35 am 07:35 Sunny 65 18.2 64 17.8 98 98 SSE 5 7 29.89 1012 10 16.0934 0 0
7:55 am 07:55 Sunny 66 18.8 65 18.2 96 96 SE 3 6 29.89 1012 10 16.0934 0 0
8:15 am 08:15 Sunny 67 19.4 66 18.7 96 96 SSE 6 9 29.88 1012 10 16.0934 0 0
8:35 am 08:35 Sunny 69 20.6 67 19.5 93 93 SSE 6 9 29.87 1012 10 16.0934 0 0
8:55 am 08:55 Sunny 71 21.5 67 19.6 89 89 SSE 8 13 29.87 1011 10 16.0934 0 0
9:15 am 09:15 Sunny 72 22.2 67 19.7 86 86 SSE 9 15 29.86 1011 10 16.0934 0 0
9:35 am 09:35 Sunny 73 23 68 20.1 84 84 SSE 7 11 29.85 1011 10 16.0934 0 0
9:55 am 09:55 Sunny 76 24.2 67 19.7 76 76 S 12 19 29.85 1011 10 16.0934 0 0
10:15 am 10:15 Sunny 76 24.7 67 19.3 72 72 S 13 20 29.85 1011 10 16.0934 0 0
10:35 am 10:35 Sunny 78 25.4 67 19.4 69 69 S 10 17 29.84 1011 10 16.0934 0 0
10:55 am 10:55 Sunny 78 25.8 67 19.2 67 67 S 8 13 29.84 1011 10 16.0934 0 0
11:15 am 11:15 Sunny 79 26 67 19.4 67 67 S 10 17 29.84 1010 10 16.0934 0 0
11:35 am 11:35 Sunny 79 26.3 67 19.7 67 67 S 10 17 29.83 1010 10 16.0934 0 0
11:55 am 11:55 Sunny 80 26.6 68 20.1 68 68 SSE 10 17 29.82 1010 10 16.0934 0 0
12:15 pm 12:15 Sunny 81 27.3 69 20.6 67 67 SSE 12 19 29.81 1009 10 16.0934 0 0
12:35 pm 12:35 Sunny 82 27.6 69 20.6 66 66 S 12 19 29.81 1009 10 16.0934 0 0
12:55 pm 12:55 Sunny 83 28.2 70 21 65 65 SSE 14 22 29.8 1009 10 16.0934 0 0
1:15 pm 13:15 Sunny 83 28.3 69 20.7 63 63 SSE 10 17 29.8 1009 10 16.0934 0 0
1:35 pm 13:35 Sunny 84 28.7 70 21.1 64 64 SE 12 19 29.8 1009 10 16.0934 0 0
1:55 pm 13:55 Sunny 84 29 69 20.7 61 61 SSE 13 20 29.8 1009 10 16.0934 0 0
2:15 pm 14:15 Sunny 85 29.3 70 20.9 61 61 SE 18 30 29.79 1009 10 16.0934 0 0
2:35 pm 14:35 Sunny 85 29.4 69 20.7 60 60 SSE 17 28 29.78 1009 10 16.0934 0 0
2:55 pm 14:55 Sunny 85 29.7 70 21.2 60 60 SSE 13 20 29.77 1008 10 16.0934 0 0
3:15 pm 15:15 Sunny 86 29.9 70 21.3 60 60 SSE 16 26 29.77 1008 10 16.0934 0 0
3:35 pm 15:35 Partly Cloudy 86 30 69 20.8 58 58 SSE 10 17 29.76 1008 10 16.0934 0 0
3:55 pm 15:55 Partly Cloudy 87 30.4 69 20.7 56 56 SSE 12 19 29.74 1007 10 16.0934 0 0
4:15 pm 16:15 Partly Cloudy 87 30.8 69 20.6 55 55 SSE 18 30 29.73 1007 10 16.0934 0 0
4:35 pm 16:35 Sunny 87 30.7 68 20.1 53 53 SSE 16 26 29.73 1007 10 16.0934 0 0
4:55 pm 16:55 Sunny 87 30.5 68 20 53 53 SSE 17 28 29.72 1007 10 16.0934 0 0
5:15 pm 17:15 Sunny 86 30.1 68 20.1 55 55 SSE 20 31 29.72 1006 10 16.0934 0 0
5:35 pm 17:35 Sunny 86 29.9 69 20.5 57 57 SSE 16 26 29.72 1006 10 16.0934 0 0
5:55 pm 17:55 Sunny 85 29.5 69 20.6 59 59 SSE 17 28 29.72 1006 10 16.0934 0 0
6:15 pm 18:15 Sunny 84 29.1 69 20.6 60 60 SSE 13 20 29.72 1006 10 16.0934 0 0
6:35 pm 18:35 Sunny 84 28.7 69 20.6 62 62 SSE 13 20 29.72 1006 10 16.0934 0 0
6:55 pm 18:55 Sunny 83 28.1 69 20.6 64 64 SSE 10 17 29.71 1006 10 16.0934 0 0
7:15 pm 19:15 Sunny 82 27.5 69 20.5 66 66 SSE 10 17 29.72 1006 10 16.0934 0 0
7:35 pm 19:35 Sunny 80 26.8 68 20.2 67 67 SSE 14 22 29.72 1007 10 16.0934 0 0
7:55 pm 19:55 Sunny 80 26.4 68 20 68 68 SSE 15 24 29.72 1006 10 16.0934 0 0
8:15 pm 20:15 Clear 78 25.8 68 20 70 70 SSE 15 24 29.73 1007 10 16.0934 0 0
8:35 pm 20:35 Clear 78 25.6 68 19.8 70 70 SSE 14 22 29.72 1007 10 16.0934 0 0
8:55 pm 20:55 Clear 78 25.6 67 19.7 70 70 SSE 16 26 29.72 1007 10 16.0934 0 0
9:15 pm 21:15 Clear 77 25.2 68 19.8 72 72 SSE 15 24 29.73 1007 10 16.0934 0 0
9:35 pm 21:35 Clear 77 25.2 68 20 73 73 SSE 16 26 29.75 1007 10 16.0934 0 0
9:55 pm 21:55 Clear 77 25.1 67 19.7 72 72 SSE 17 28 29.75 1007 10 16.0934 0 0
10:15 pm 22:15 Clear 76 24.7 67 19.5 73 73 SSE 14 22 29.76 1008 10 16.0934 0 0
10:35 pm 22:35 Clear 76 24.5 67 19.3 73 73 SSE 16 26 29.76 1008 10 16.0934 0 0
10:55 pm 22:55 Clear 75 24.1 67 19.4 75 75 SSE 13 20 29.78 1009 10 16.0934 0 0
11:15 pm 23:15 Clear 75 23.7 67 19.5 77 77 SSE 10 17 29.79 1009 10 16.0934 0 0
11:35 pm 23:35 Clear 74 23.2 67 19.3 79 79 SSE 13 20 29.8 1009 10 16.0934 0 0
11:55 pm 23:55 Clear 73 23 67 19.2 79 79 SSE 12 19 29.8 1009 10 16.0934 0 0

Powered by AerisWeather